Погода в Митякинской

Россия / Ростовская область     48°36′35″N   39°47′09″E
темп.,
°C
ветер,
м/с
пор.,
м/с
влажн.,
%
обл.,
%
осадки,
мм/ч
давл.,
гПа
погр.,
м
11 мая, вт
вт1100:00+8св81195100 0.3 1007568
03:00+6св6993100 0.3 1010580
06:00+6св4894100 0.4 1010536
09:00+7св7108776 0.8 1011940
12:00+9св9118099 0.9 10111183
15:00+6ссв61093100 1.7 1011871
18:00+8вюв598895 0.4 1012798
21:00+8вюв8139265 1.2 1015650
12 мая, ср
ср1200:00+7юв81488100 0.3 10171021
03:00+7вюв71193100 2.7 1018920
06:00+6вюв6119281 3.3 1018463
09:00+8вюв51089100 3.6 1018726
12:00+13ююв686969 0.0 10171316
15:00+15ююв7860100 0.4 10171569
18:00+15ююв5971100 0.1 1016908
21:00+12юв2386100 0.5 101663
13 мая, чт
чт1300:00+12вюв228778 0.0 101532
03:00+10в22895 0.0 101519
06:00+11вюв25835 0.0 1015109
09:00+17юв45646 0.0 1015497
12:00+22юв46520 0.0 10141522
15:00+23юв454942 0.0 10141845
18:00+21юв3565100 0.0 1014178
21:00+17вюв2277100 0.0 101417
14 мая, пт
пт1400:00+16вюв2285100 0.0 101424
03:00+15в37895 0.0 1014112
06:00+15вюв310880 0.0 1014226
09:00+22юв610615 0.0 1013555
12:00+26юв68495 0.0 1012998
15:00+28юв67465 0.0 10121198
18:00+25юв610635 0.0 1011594
21:00+19ююв22840 0.0 101116
15 мая, сб
сб1500:00+18юв22875 0.0 101017
03:00+17ююв22898 0.0 101116
06:00+18ю228766 0.0 101284
09:00+23юз3471100 0.0 1012607
12:00+24юз3455100 0.0 1013906
15:00+26ююз3443100 0.0 10121445
18:00+25ююз2457100 0.0 1012112
21:00+20зюз336298 0.0 101232